Time,TemperatureF,DewpointF,PressureIn,WindDirection,WindDirectionDegrees,WindSpeedMPH,WindSpeedGustMPH,Humidity,HourlyPrecipIn,Conditions,Clouds,dailyrainin,SoftwareType,DateUTC
2013-03-22 00:03:00,29.0,16.0,-100.00,NNE,30,7.0,13.0,58,0.00,,,-99.99,,2013-03-22 04:03:00,
2013-03-22 00:12:00,28.0,16.0,-100.00,NNE,25,6.0,10.0,59,0.00,,,-99.99,,2013-03-22 04:12:00,
2013-03-22 00:23:00,28.0,16.0,-100.00,North,0,7.0,11.0,59,0.00,,,-99.99,,2013-03-22 04:23:00,
2013-03-22 00:32:00,28.0,16.0,-100.00,North,5,7.0,11.0,59,0.00,,,-99.99,,2013-03-22 04:32:00,
2013-03-22 00:43:00,28.0,16.0,-100.00,North,10,6.0,10.0,60,0.00,,,-99.99,,2013-03-22 04:43:00,
2013-03-22 00:52:00,28.0,16.0,-100.00,North,0,6.0,12.0,60,0.00,,,-99.99,,2013-03-22 04:52:00,
2013-03-22 01:02:00,27.0,16.0,-100.00,North,0,6.0,12.0,61,0.00,,,-99.99,,2013-03-22 05:02:00,
2013-03-22 01:12:00,27.0,16.0,-100.00,NNE,15,6.0,10.0,61,0.00,,,-99.99,,2013-03-22 05:12:00,
2013-03-22 01:22:00,27.0,15.0,-100.00,NNE,25,5.0,9.0,61,0.00,,,-99.99,,2013-03-22 05:22:00,
2013-03-22 01:32:00,26.0,15.0,-100.00,NNE,15,7.0,9.0,62,0.00,,,-99.99,,2013-03-22 05:32:00,
2013-03-22 01:42:00,26.0,15.0,-100.00,North,10,5.0,9.0,63,0.00,,,-99.99,,2013-03-22 05:42:00,
2013-03-22 01:52:00,26.0,15.0,-100.00,NNE,15,6.0,8.0,64,0.00,,,-99.99,,2013-03-22 05:52:00,
2013-03-22 02:02:00,26.0,15.0,-100.00,North,0,4.0,9.0,64,0.00,,,-99.99,,2013-03-22 06:02:00,
2013-03-22 02:13:00,26.0,15.0,-100.00,NNE,15,6.0,10.0,65,0.00,,,-99.99,,2013-03-22 06:13:00,
2013-03-22 02:22:00,25.0,15.0,-100.00,NNE,15,6.0,9.0,65,0.00,,,-99.99,,2013-03-22 06:22:00,
2013-03-22 02:32:00,25.0,15.0,-100.00,NNE,25,4.0,7.0,66,0.00,,,-99.99,,2013-03-22 06:32:00,
2013-03-22 02:42:00,25.0,15.0,-100.00,NNE,20,6.0,7.0,66,0.00,,,-99.99,,2013-03-22 06:42:00,
2013-03-22 02:52:00,25.0,15.0,-100.00,NNE,30,4.0,7.0,67,0.00,,,-99.99,,2013-03-22 06:52:00,
2013-03-22 03:03:00,25.0,15.0,-100.00,NNE,30,3.0,7.0,67,0.00,,,-99.99,,2013-03-22 07:03:00,
2013-03-22 03:12:00,24.0,16.0,-100.00,NNE,15,4.0,7.0,68,0.00,,,-99.99,,2013-03-22 07:12:00,
2013-03-22 03:22:00,24.0,16.0,-100.00,NNE,15,4.0,7.0,69,0.00,,,-99.99,,2013-03-22 07:22:00,
2013-03-22 03:32:00,24.0,16.0,-100.00,NNE,15,4.0,6.0,69,0.00,,,-99.99,,2013-03-22 07:32:00,
2013-03-22 03:42:00,24.0,16.0,-100.00,NNE,15,4.0,6.0,70,0.00,,,-99.99,,2013-03-22 07:42:00,
2013-03-22 03:52:00,24.0,16.0,-100.00,North,10,4.0,6.0,70,0.00,,,-99.99,,2013-03-22 07:52:00,
2013-03-22 04:03:00,24.0,15.0,-100.00,NNE,25,4.0,7.0,70,0.00,,,-99.99,,2013-03-22 08:03:00,
2013-03-22 04:13:00,24.0,15.0,-100.00,NNE,25,4.0,7.0,70,0.00,,,-99.99,,2013-03-22 08:13:00,
2013-03-22 04:22:00,24.0,15.0,-100.00,NNE,30,2.0,6.0,69,0.00,,,-99.99,,2013-03-22 08:22:00,
2013-03-22 04:32:00,24.0,15.0,-100.00,NNE,25,5.0,6.0,68,0.00,,,-99.99,,2013-03-22 08:32:00,
2013-03-22 04:42:00,24.0,15.0,-100.00,NE,40,3.0,6.0,68,0.00,,,-99.99,,2013-03-22 08:42:00,
2013-03-22 04:52:00,24.0,15.0,-100.00,NE,45,2.0,5.0,68,0.00,,,-99.99,,2013-03-22 08:52:00,
2013-03-22 05:02:00,24.0,15.0,-100.00,East,85,1.0,4.0,68,0.00,,,-99.99,,2013-03-22 09:02:00,
2013-03-22 05:12:00,23.0,15.0,-100.00,ENE,75,1.0,3.0,68,0.00,,,-99.99,,2013-03-22 09:12:00,
2013-03-22 05:22:00,23.0,15.0,-100.00,NNE,25,1.0,3.0,69,0.00,,,-99.99,,2013-03-22 09:22:00,
2013-03-22 05:32:00,23.0,15.0,-100.00,NE,35,1.0,4.0,69,0.00,,,-99.99,,2013-03-22 09:32:00,
2013-03-22 05:42:00,23.0,15.0,-100.00,NE,40,1.0,4.0,69,0.00,,,-99.99,,2013-03-22 09:42:00,
2013-03-22 05:53:00,23.0,15.0,-100.00,NE,55,1.0,3.0,70,0.00,,,-99.99,,2013-03-22 09:53:00,
2013-03-22 06:04:00,23.0,15.0,-100.00,NE,40,2.0,4.0,70,0.00,,,-99.99,,2013-03-22 10:04:00,
2013-03-22 06:12:00,23.0,15.0,-100.00,North,0,1.0,4.0,70,0.00,,,-99.99,,2013-03-22 10:12:00,
2013-03-22 06:22:00,23.0,15.0,-100.00,NE,45,2.0,4.0,70,0.00,,,-99.99,,2013-03-22 10:22:00,
2013-03-22 06:33:00,23.0,15.0,-100.00,NE,45,2.0,5.0,71,0.00,,,-99.99,,2013-03-22 10:33:00,
2013-03-22 06:42:00,23.0,15.0,-100.00,East,80,2.0,6.0,71,0.00,,,-99.99,,2013-03-22 10:42:00,
2013-03-22 06:52:00,23.0,15.0,-100.00,ENE,75,3.0,6.0,71,0.00,,,-99.99,,2013-03-22 10:52:00,
2013-03-22 07:03:00,23.0,15.0,-100.00,East,100,6.0,9.0,71,0.00,,,-99.99,,2013-03-22 11:03:00,
2013-03-22 07:12:00,23.0,15.0,-100.00,East,90,4.0,9.0,70,0.00,,,-99.99,,2013-03-22 11:12:00,
2013-03-22 07:22:00,23.0,15.0,-100.00,East,90,2.0,9.0,71,0.00,,,-99.99,,2013-03-22 11:22:00,
2013-03-22 07:33:00,23.0,15.0,-100.00,East,95,3.0,7.0,71,0.00,,,-99.99,,2013-03-22 11:33:00,
2013-03-22 07:42:00,23.0,15.0,-100.00,East,95,3.0,9.0,71,0.00,,,-99.99,,2013-03-22 11:42:00,
2013-03-22 07:52:00,23.0,15.0,-100.00,East,85,4.0,8.0,72,0.00,,,-99.99,,2013-03-22 11:52:00,
2013-03-22 08:02:00,23.0,15.0,-100.00,East,95,4.0,7.0,72,0.00,,,-99.99,,2013-03-22 12:02:00,
2013-03-22 08:12:00,23.0,15.0,-100.00,East,95,2.0,6.0,71,0.00,,,-99.99,,2013-03-22 12:12:00,
2013-03-22 08:22:00,23.0,15.0,-100.00,ENE,75,2.0,6.0,71,0.00,,,-99.99,,2013-03-22 12:22:00,
2013-03-22 08:32:00,23.0,15.0,-100.00,ENE,75,2.0,6.0,71,0.00,,,-99.99,,2013-03-22 12:32:00,
2013-03-22 08:42:00,24.0,15.0,-100.00,East,100,4.0,7.0,69,0.00,,,-99.99,,2013-03-22 12:42:00,
2013-03-22 08:52:00,24.0,15.0,-100.00,East,90,4.0,8.0,68,0.00,,,-99.99,,2013-03-22 12:52:00,
2013-03-22 09:02:00,25.0,15.0,-100.00,East,90,4.0,9.0,67,0.00,,,-99.99,,2013-03-22 13:02:00,
2013-03-22 09:12:00,25.0,15.0,-100.00,East,90,6.0,9.0,66,0.00,,,-99.99,,2013-03-22 13:12:00,
2013-03-22 09:22:00,25.0,15.0,-100.00,ENE,75,7.0,12.0,64,0.00,,,-99.99,,2013-03-22 13:22:00,
2013-03-22 09:32:00,26.0,15.0,-100.00,ENE,70,6.0,11.0,63,0.00,,,-99.99,,2013-03-22 13:32:00,
2013-03-22 09:42:00,27.0,15.0,-100.00,NE,55,6.0,12.0,62,0.00,,,-99.99,,2013-03-22 13:42:00,
2013-03-22 09:52:00,27.0,15.0,-100.00,East,85,4.0,11.0,61,0.00,,,-99.99,,2013-03-22 13:52:00,
2013-03-22 10:03:00,27.0,15.0,-100.00,East,100,7.0,11.0,59,0.00,,,-99.99,,2013-03-22 14:03:00,
2013-03-22 10:12:00,28.0,15.0,-100.00,East,85,8.0,12.0,58,0.00,,,-99.99,,2013-03-22 14:12:00,
2013-03-22 10:22:00,28.0,15.0,-100.00,East,90,8.0,13.0,57,0.00,,,-99.99,,2013-03-22 14:22:00,
2013-03-22 10:32:00,29.0,15.0,-100.00,ESE,115,7.0,13.0,56,0.00,,,-99.99,,2013-03-22 14:32:00,
2013-03-22 10:42:00,29.0,15.0,-100.00,ESE,115,6.0,12.0,55,0.00,,,-99.99,,2013-03-22 14:42:00,
2013-03-22 10:52:00,30.0,15.0,-100.00,East,80,6.0,12.0,54,0.00,,,-99.99,,2013-03-22 14:52:00,
2013-03-22 11:03:00,29.0,15.0,-100.00,ENE,70,4.0,12.0,53,0.00,,,-99.99,,2013-03-22 15:03:00,
2013-03-22 11:12:00,31.0,15.0,-100.00,NE,35,2.0,12.0,51,0.00,,,-99.99,,2013-03-22 15:12:00,
2013-03-22 11:22:00,31.0,15.0,-100.00,SE,130,7.0,12.0,51,0.00,,,-99.99,,2013-03-22 15:22:00,
2013-03-22 11:33:00,32.0,16.0,-100.00,East,80,5.0,14.0,51,0.00,,,-99.99,,2013-03-22 15:33:00,
2013-03-22 11:42:00,31.0,15.0,-100.00,ENE,65,6.0,16.0,50,0.00,,,-99.99,,2013-03-22 15:42:00,
2013-03-22 11:52:00,32.0,15.0,-100.00,ENE,70,3.0,12.0,49,0.00,,,-99.99,,2013-03-22 15:52:00,
2013-03-22 12:03:00,33.0,16.0,-100.00,NNE,30,7.0,11.0,50,0.00,,,-99.99,,2013-03-22 16:03:00,
2013-03-22 12:13:00,32.0,15.0,-100.00,North,355,4.0,17.0,49,0.00,,,-99.99,,2013-03-22 16:13:00,
2013-03-22 12:23:00,33.0,16.0,-100.00,North,0,7.0,14.0,49,0.00,,,-99.99,,2013-03-22 16:23:00,
2013-03-22 12:32:00,33.0,16.0,-100.00,NNE,20,10.0,14.0,50,0.00,,,-99.99,,2013-03-22 16:32:00,
2013-03-22 12:42:00,34.0,16.0,-100.00,NNE,20,9.0,12.0,48,0.00,,,-99.99,,2013-03-22 16:42:00,
2013-03-22 12:52:00,35.0,17.0,-100.00,NNE,20,10.0,13.0,48,0.00,,,-99.99,,2013-03-22 16:52:00,
2013-03-22 13:03:00,34.0,16.0,-100.00,NNE,30,4.0,12.0,47,0.00,,,-99.99,,2013-03-22 17:03:00,
2013-03-22 13:12:00,35.0,17.0,-100.00,NNE,30,11.0,16.0,46,0.00,,,-99.99,,2013-03-22 17:12:00,
2013-03-22 13:23:00,36.0,16.0,-100.00,NE,45,8.0,14.0,44,0.00,,,-99.99,,2013-03-22 17:23:00,
2013-03-22 13:32:00,36.0,16.0,-100.00,East,85,6.0,13.0,44,0.00,,,-99.99,,2013-03-22 17:32:00,
2013-03-22 13:42:00,36.0,17.0,-100.00,NNE,15,6.0,17.0,44,0.00,,,-99.99,,2013-03-22 17:42:00,
2013-03-22 14:02:00,37.0,15.0,-100.00,ENE,70,6.0,15.0,41,0.00,,,-99.99,,2013-03-22 18:02:00,
2013-03-22 14:12:00,37.0,15.0,-100.00,NE,45,11.0,17.0,39,0.00,,,-99.99,,2013-03-22 18:12:00,
2013-03-22 14:22:00,38.0,15.0,-100.00,ENE,70,4.0,16.0,39,0.00,,,-99.99,,2013-03-22 18:22:00,
2013-03-22 14:33:00,39.0,17.0,-100.00,North,0,9.0,15.0,41,0.00,,,-99.99,,2013-03-22 18:33:00,
2013-03-22 14:42:00,39.0,17.0,-100.00,NNE,25,6.0,16.0,41,0.00,,,-99.99,,2013-03-22 18:42:00,
2013-03-22 14:52:00,40.0,17.0,-100.00,North,5,11.0,17.0,38,0.00,,,-99.99,,2013-03-22 18:52:00,
2013-03-22 15:02:00,40.0,17.0,-100.00,North,350,12.0,16.0,39,0.00,,,-99.99,,2013-03-22 19:02:00,
2013-03-22 15:12:00,39.0,16.0,-100.00,NE,40,6.0,20.0,38,0.00,,,-99.99,,2013-03-22 19:12:00,
2013-03-22 15:22:00,40.0,17.0,-100.00,North,0,13.0,19.0,39,0.00,,,-99.99,,2013-03-22 19:22:00,
2013-03-22 15:32:00,40.0,17.0,-100.00,North,0,9.0,14.0,39,0.00,,,-99.99,,2013-03-22 19:32:00,
2013-03-22 15:42:00,40.0,17.0,-100.00,NNE,30,8.0,17.0,38,0.00,,,-99.99,,2013-03-22 19:42:00,
2013-03-22 15:52:00,40.0,15.0,-100.00,ENE,75,10.0,16.0,35,0.00,,,-99.99,,2013-03-22 19:52:00,
2013-03-22 16:02:00,41.0,16.0,-100.00,ENE,70,7.0,13.0,35,0.00,,,-99.99,,2013-03-22 20:02:00,
2013-03-22 16:12:00,41.0,16.0,-100.00,East,85,4.0,16.0,35,0.00,,,-99.99,,2013-03-22 20:12:00,
2013-03-22 16:22:00,41.0,17.0,-100.00,ENE,60,7.0,16.0,37,0.00,,,-99.99,,2013-03-22 20:22:00,
2013-03-22 16:32:00,41.0,16.0,-100.00,East,90,9.0,16.0,35,0.00,,,-99.99,,2013-03-22 20:32:00,
2013-03-22 16:43:00,42.0,17.0,-100.00,NNE,30,12.0,17.0,35,0.00,,,-99.99,,2013-03-22 20:43:00,
2013-03-22 16:52:00,42.0,16.0,-100.00,ENE,65,4.0,12.0,34,0.00,,,-99.99,,2013-03-22 20:52:00,
2013-03-22 17:03:00,42.0,15.0,-100.00,East,90,9.0,13.0,33,0.00,,,-99.99,,2013-03-22 21:03:00,
2013-03-22 17:12:00,42.0,17.0,-100.00,NE,55,5.0,14.0,35,0.00,,,-99.99,,2013-03-22 21:12:00,
2013-03-22 17:22:00,42.0,16.0,-100.00,NE,45,3.0,15.0,33,0.00,,,-99.99,,2013-03-22 21:22:00,
2013-03-22 17:33:00,42.0,15.0,-100.00,ENE,65,4.0,15.0,33,0.00,,,-99.99,,2013-03-22 21:33:00,
2013-03-22 17:43:00,42.0,16.0,-100.00,NNE,30,6.0,12.0,34,0.00,,,-99.99,,2013-03-22 21:43:00,
2013-03-22 17:53:00,42.0,16.0,-100.00,ENE,60,4.0,12.0,34,0.00,,,-99.99,,2013-03-22 21:53:00,
2013-03-22 18:03:00,42.0,15.0,-100.00,NE,55,6.0,12.0,33,0.00,,,-99.99,,2013-03-22 22:03:00,
2013-03-22 18:12:00,42.0,15.0,-100.00,NE,35,9.0,17.0,33,0.00,,,-99.99,,2013-03-22 22:12:00,
2013-03-22 18:23:00,42.0,15.0,-100.00,ENE,65,10.0,14.0,33,0.00,,,-99.99,,2013-03-22 22:23:00,
2013-03-22 18:32:00,41.0,15.0,-100.00,East,85,6.0,14.0,33,0.00,,,-99.99,,2013-03-22 22:32:00,
2013-03-22 18:42:00,42.0,15.0,-100.00,NE,55,6.0,11.0,33,0.00,,,-99.99,,2013-03-22 22:42:00,
2013-03-22 18:52:00,41.0,15.0,-100.00,NE,40,7.0,14.0,34,0.00,,,-99.99,,2013-03-22 22:52:00,
2013-03-22 19:02:00,41.0,14.0,-100.00,NE,40,7.0,13.0,33,0.00,,,-99.99,,2013-03-22 23:02:00,
2013-03-22 19:12:00,41.0,15.0,-100.00,NE,35,5.0,11.0,33,0.00,,,-99.99,,2013-03-22 23:12:00,
2013-03-22 19:22:00,41.0,14.0,-100.00,NE,50,4.0,12.0,33,0.00,,,-99.99,,2013-03-22 23:22:00,
2013-03-22 19:32:00,41.0,14.0,-100.00,East,100,3.0,12.0,33,0.00,,,-99.99,,2013-03-22 23:32:00,
2013-03-22 19:42:00,41.0,15.0,-100.00,ENE,70,4.0,11.0,34,0.00,,,-99.99,,2013-03-22 23:42:00,
2013-03-22 19:52:00,40.0,15.0,-100.00,East,85,4.0,9.0,35,0.00,,,-99.99,,2013-03-22 23:52:00,
2013-03-22 20:02:00,40.0,15.0,-100.00,ENE,70,4.0,7.0,35,0.00,,,-99.99,,2013-03-23 00:02:00,
2013-03-22 20:12:00,39.0,15.0,-100.00,ENE,70,3.0,6.0,36,0.00,,,-99.99,,2013-03-23 00:12:00,
2013-03-22 20:23:00,39.0,15.0,-100.00,NE,45,2.0,6.0,37,0.00,,,-99.99,,2013-03-23 00:23:00,
2013-03-22 20:33:00,39.0,15.0,-100.00,NE,50,1.0,3.0,37,0.00,,,-99.99,,2013-03-23 00:33:00,
2013-03-22 20:42:00,39.0,16.0,-100.00,NNE,20,4.0,7.0,39,0.00,,,-99.99,,2013-03-23 00:42:00,
2013-03-22 20:52:00,38.0,16.0,-100.00,North,10,4.0,7.0,40,0.00,,,-99.99,,2013-03-23 00:52:00,
2013-03-22 21:03:00,38.0,17.0,-100.00,NNE,20,4.0,6.0,42,0.00,,,-99.99,,2013-03-23 01:03:00,
2013-03-22 21:12:00,37.0,17.0,-100.00,NNW,345,3.0,7.0,44,0.00,,,-99.99,,2013-03-23 01:12:00,
2013-03-22 21:22:00,37.0,17.0,-100.00,North,5,4.0,7.0,44,0.00,,,-99.99,,2013-03-23 01:22:00,
2013-03-22 21:32:00,37.0,17.0,-100.00,NNE,15,4.0,8.0,44,0.00,,,-99.99,,2013-03-23 01:32:00,
2013-03-22 21:42:00,37.0,17.0,-100.00,NNE,15,3.0,7.0,44,0.00,,,-99.99,,2013-03-23 01:42:00,
2013-03-22 21:52:00,36.0,18.0,-100.00,North,5,4.0,6.0,46,0.00,,,-99.99,,2013-03-23 01:52:00,
2013-03-22 22:02:00,36.0,18.0,-100.00,North,5,4.0,7.0,47,0.00,,,-99.99,,2013-03-23 02:02:00,
2013-03-22 22:12:00,35.0,18.0,-100.00,NNE,20,4.0,7.0,48,0.00,,,-99.99,,2013-03-23 02:12:00,
2013-03-22 22:22:00,35.0,18.0,-100.00,North,10,2.0,7.0,48,0.00,,,-99.99,,2013-03-23 02:22:00,
2013-03-22 22:32:00,35.0,18.0,-100.00,NE,40,2.0,7.0,49,0.00,,,-99.99,,2013-03-23 02:32:00,
2013-03-22 22:42:00,35.0,18.0,-100.00,NNE,30,1.0,6.0,51,0.00,,,-99.99,,2013-03-23 02:42:00,
2013-03-22 22:52:00,34.0,19.0,-100.00,North,0,3.0,6.0,53,0.00,,,-99.99,,2013-03-23 02:52:00,
2013-03-22 23:02:00,34.0,19.0,-100.00,North,0,4.0,6.0,55,0.00,,,-99.99,,2013-03-23 03:02:00,
2013-03-22 23:12:00,33.0,19.0,-100.00,NNE,15,1.0,6.0,56,0.00,,,-99.99,,2013-03-23 03:12:00,
2013-03-22 23:22:00,32.0,18.0,-100.00,WNW,300,1.0,3.0,56,0.00,,,-99.99,,2013-03-23 03:22:00,
2013-03-22 23:33:00,32.0,18.0,-100.00,NW,325,0.0,6.0,56,0.00,,,-99.99,,2013-03-23 03:33:00,
2013-03-22 23:43:00,32.0,18.0,-100.00,NNE,15,0.0,3.0,56,0.00,,,-99.99,,2013-03-23 03:43:00,
2013-03-22 23:53:00,32.0,18.0,-100.00,NNE,30,1.0,4.0,57,0.00,,,-99.99,,2013-03-23 03:53:00,